GW6918 Weather Reports


Display with metric or nautical units.
time (UTC)temp
F
wind
direction
speed
MPH
gust
MPH
rain 1hr
in
rain 24hr
in
rain mn
in
humidity
%
barometer
mb
20260507213335 53 116 2.0 2.0 0.00 1.90 1.90 98 1008.9
20260507212831 53 76 0.0 0.0 0.00 1.90 1.90 99 1008.7
20260507212327 52 110 0.0 1.0 0.00 1.90 1.90 99 1008.6
20260507211824 52 61 1.0 1.0 0.00 1.90 1.90 99 1008.9
20260507211321 52 36 1.0 2.0 0.00 1.90 1.90 99 1009.1
20260507210818 52 19 1.0 2.0 0.00 1.90 1.90 99 1009.1
20260507210315 52 325 0.0 0.0 0.00 1.90 1.90 99 1009.1
20260507205811 52 21 0.0 1.0 0.00 1.90 1.90 99 1009.0
20260507205308 52 89 0.0 0.0 0.00 1.90 1.90 99 1008.8
20260507204804 52 88 2.0 2.0 0.00 1.90 1.90 99 1008.7
20260507204302 53 35 2.0 3.0 0.00 1.90 1.90 99 1008.6
20260507203759 52 27 0.0 1.0 0.00 1.90 1.90 99 1008.3
20260507203257 52 57 1.0 1.0 0.00 1.90 1.90 99 1008.5
20260507202753 52 64 2.0 3.0 0.00 1.90 1.90 99 1008.7
20260507202249 52 103 1.0 1.0 0.00 1.90 1.90 99 1008.4
20260507201744 52 78 0.0 0.0 0.00 1.90 1.90 99 1008.5
20260507201241 52 75 0.0 0.0 0.00 1.90 1.90 99 1008.3
20260507200737 52 75 0.0 1.0 0.00 1.90 1.90 99 1008.5
20260507200233 52 97 3.0 4.0 0.00 1.90 1.90 99 1008.1
20260507195730 52 289 1.0 1.0 0.00 1.90 1.90 99 1008.1
20260507195227 52 82 1.0 1.0 0.00 1.90 1.90 99 1008.2
20260507194724 52 154 1.0 1.0 0.00 1.90 1.90 99 1008.5
20260507194220 52 90 1.0 1.0 0.00 1.90 1.90 99 1008.1
20260507193717 52 78 1.0 1.0 0.00 1.90 1.90 99 1008.1
20260507193214 52 69 0.0 0.0 0.00 1.90 1.90 99 1008.3
20260507192710 52 77 0.0 1.0 0.00 1.90 1.90 99 1008.4
20260507192207 53 98 2.0 3.0 0.00 1.90 1.90 99 1008.3
20260507191702 53 62 0.0 0.0 0.00 1.90 1.90 99 1008.6
20260507191200 53 79 1.0 1.0 0.00 1.90 1.90 99 1008.6
20260507190657 53 46 1.0 2.0 0.00 1.90 1.90 99 1009.0
20260507190155 53 119 0.0 1.0 0.00 1.90 1.90 99 1008.9
20260507185654 53 175 0.0 0.0 0.00 1.90 1.90 99 1009.2
20260507185150 53 97 0.0 1.0 0.00 1.90 1.90 99 1008.9
20260507184648 53 87 0.0 0.0 0.00 1.90 1.90 99 1009.3
20260507184146 53 142 0.0 0.0 0.00 1.90 1.90 99 1009.5
20260507183642 54 149 0.0 0.0 0.00 1.90 1.90 99 1009.5
20260507183139 54 158 0.0 1.0 0.00 1.90 1.90 99 1009.1
20260507182635 54 117 2.0 2.0 0.05 1.90 1.90 99 1008.9
20260507182131 54 35 0.0 1.0 0.05 1.90 1.90 99 1008.8
20260507181628 54 91 0.0 1.0 0.00 1.89 1.89 99 1008.4
20260507181124 53 72 1.0 1.0 0.00 1.89 1.89 99 1008.9
20260507180620 53 153 1.0 1.0 0.07 1.89 1.89 99 1008.8
20260507180118 53 115 1.0 1.0 0.12 1.89 1.89 99 1009.2
20260507175614 53 104 0.0 0.0 0.05 1.88 1.88 99 1009.7
20260507175111 53 79 1.0 1.0 0.07 1.87 1.87 99 1010.2
20260507174608 53 56 1.0 2.0 0.12 1.87 1.87 99 1010.3
20260507174106 53 148 2.0 2.0 0.05 1.86 1.86 99 1009.8
20260507173603 53 89 1.0 1.0 0.07 1.85 1.85 99 1010.0
20260507173100 53 108 0.0 0.0 0.07 1.85 1.85 99 1010.0
20260507172556 53 83 0.0 0.0 0.07 1.84 1.84 99 1010.4
20260507172053 53 78 0.0 0.0 0.12 1.84 1.84 99 1010.8
20260507171548 53 56 0.0 0.0 0.17 1.83 1.83 99 1010.9
20260507171046 53 59 0.0 0.0 0.19 1.82 1.82 99 1010.4
20260507170542 53 96 0.0 0.0 0.12 1.80 1.80 99 1010.6
20260507170039 53 10 1.0 2.0 0.19 1.80 1.80 99 1010.4
20260507165535 52 129 0.0 0.0 0.19 1.78 1.78 99 1010.6
20260507165032 52 87 0.0 0.0 0.17 1.77 1.77 99 1010.8
20260507164528 52 88 1.0 1.0 0.17 1.75 1.75 99 1010.5
20260507164025 52 143 0.0 0.0 0.50 1.74 1.74 99 1010.4
20260507163522 52 59 2.0 2.0 0.54 1.72 1.72 99 1010.2
20260507163020 52 54 4.0 6.0 0.50 1.67 1.67 99 1010.6
20260507162515 52 100 1.0 2.0 0.54 1.63 1.63 99 1010.1
20260507162012 52 91 4.0 7.0 0.35 1.58 1.58 99 1010.3
20260507161508 52 82 1.0 1.0 0.19 1.54 1.54 99 1010.2
20260507161005 52 68 1.0 1.0 0.12 1.52 1.52 99 1010.7
20260507160501 52 258 0.0 1.0 0.12 1.51 1.51 99 1010.8
20260507155956 52 69 1.0 2.0 0.12 1.50 1.50 99 1010.6
20260507155453 53 89 1.0 1.0 0.19 1.49 1.49 99 1010.5
20260507154950 53 216 1.0 2.0 0.26 1.48 1.48 99 1010.5
20260507154447 53 78 1.0 2.0 0.17 1.46 1.46 99 1010.5
20260507153944 53 284 4.0 6.0 0.24 1.44 1.44 99 1010.7
20260507153441 54 46 1.0 2.0 0.24 1.43 1.43 99 1010.4
20260507152937 54 171 1.0 2.0 0.05 1.40 1.40 99 1010.5
20260507152433 55 85 0.0 0.0 0.07 1.39 1.39 99 1010.4
20260507151929 55 61 2.0 3.0 0.24 1.39 1.39 99 1010.3
20260507151426 55 97 1.0 1.0 0.31 1.38 1.38 99 1010.4
20260507150923 55 203 1.0 1.0 0.26 1.35 1.35 99 1010.7
20260507150420 55 181 2.0 2.0 0.24 1.33 1.33 99 1010.3
20260507145916 55 108 0.0 0.0 0.28 1.31 1.31 99 1010.4
20260507145412 55 65 1.0 2.0 0.24 1.29 1.29 99 1010.3
20260507144909 56 70 2.0 2.0 0.31 1.26 1.26 99 1010.0
20260507144406 56 111 1.0 2.0 0.31 1.25 1.25 99 1010.0
20260507143903 56 45 1.0 2.0 0.12 1.21 1.21 99 1009.9
20260507143400 57 79 1.0 2.0 0.12 1.20 1.20 99 1010.1
20260507142856 57 359 2.0 3.0 0.12 1.19 1.19 99 1010.1
20260507142352 57 116 1.0 1.0 0.05 1.18 1.18 99 1010.0
20260507141849 58 210 1.0 2.0 0.07 1.17 1.17 99 1009.9
20260507141346 58 95 0.0 0.0 0.12 1.17 1.17 99 1009.9
20260507140843 58 120 1.0 2.0 0.12 1.16 1.16 99 1010.0
20260507140339 59 85 1.0 1.0 0.12 1.15 1.15 99 1009.9
20260507135837 59 82 1.0 1.0 0.17 1.14 1.14 99 1009.9
20260507135334 59 103 0.0 1.0 0.26 1.13 1.13 99 1009.9
20260507134831 60 99 0.0 1.0 0.31 1.12 1.12 99 1009.6
20260507134327 60 53 1.0 1.0 0.35 1.10 1.10 99 1009.7
20260507133823 61 60 0.0 1.0 0.28 1.07 1.07 99 1009.8
20260507133319 61 337 0.0 0.0 0.24 1.04 1.04 99 1010.1
20260507132818 61 6 0.0 0.0 0.24 1.02 1.02 99 1009.8
20260507132314 61 301 0.0 0.0 0.42 1.00 1.00 99 1010.0
20260507131811 61 45 0.0 0.0 0.31 0.98 0.98 99 1010.0
20260507131308 62 311 0.0 1.0 0.12 0.94 0.94 99 1010.0
20260507130804 62 339 1.0 1.0 0.12 0.93 0.93 99 1010.0
20260507130302 62 39 0.0 1.0 0.24 0.92 0.92 99 1009.8
20260507125801 62 86 1.0 2.0 0.31 0.91 0.91 99 1009.9
20260507125258 64 302 1.0 2.0 0.24 0.89 0.89 99 1010.1
20260507124755 64 353 3.0 4.0 0.12 0.86 0.86 99 1009.6
20260507124251 65 14 1.0 2.0 0.26 0.85 0.85 99 1010.0
20260507123750 65 346 1.0 2.0 0.54 0.84 0.84 99 1009.6
20260507123247 65 350 0.0 0.0 0.94 0.81 0.81 99 1009.9
20260507122742 66 349 1.0 1.0 1.13 0.75 0.75 99 1010.0
20260507122238 66 194 0.0 0.0 1.28 0.65 0.65 99 1009.9
20260507121734 66 193 0.0 0.0 1.21 0.56 0.56 99 1009.9
20260507121230 66 197 0.0 0.0 0.73 0.43 0.43 99 1010.1
20260507120726 66 197 0.0 0.0 0.54 0.36 0.36 99 1009.8
20260507120224 66 197 0.0 0.0 0.40 0.31 0.31 99 1009.6
20260507115719 66 200 0.0 0.0 0.35 0.27 0.27 99 1009.8
20260507115215 66 200 0.0 0.0 0.26 0.24 0.24 99 1009.7
20260507114711 66 200 0.0 0.0 0.12 0.21 0.21 99 1009.7
20260507114209 66 200 0.0 0.0 0.05 0.20 0.20 99 1009.8
20260507113706 66 200 0.0 0.0 0.00 0.19 0.19 99 1009.8
20260507113203 66 200 0.0 0.0 0.00 0.19 0.19 99 1009.7
20260507112700 66 200 0.0 0.0 0.07 0.19 0.19 99 1009.9
20260507112157 66 200 0.0 0.0 0.07 0.19 0.19 99 1009.4
20260507111654 66 200 0.0 0.0 0.00 0.18 0.18 99 1009.6
20260507111151 66 200 0.0 0.0 0.00 0.18 0.18 99 1009.6
20260507110647 66 200 0.0 0.0 0.05 0.18 0.18 99 1009.7
20260507110144 66 200 0.0 0.0 0.05 0.18 0.18 99 1009.6
20260507105641 66 200 0.0 0.0 0.00 0.17 0.17 99 1009.4
20260507105137 66 200 0.0 0.0 0.07 0.17 0.17 99 1009.4
20260507104634 66 200 0.0 0.0 0.12 0.17 0.17 99 1009.5
20260507104131 66 200 0.0 0.0 0.12 0.16 0.16 99 1009.3
20260507103627 66 200 0.0 0.0 0.12 0.15 0.15 99 1009.2
20260507103124 66 200 0.0 0.0 0.05 0.14 0.14 99 1009.3
20260507102620 66 200 0.0 0.0 0.12 0.13 0.13 99 1009.1
20260507102116 66 200 1.0 1.0 0.19 0.13 0.13 99 1009.1
20260507101612 66 200 2.0 2.0 0.26 0.11 0.11 99 1009.1
20260507101108 66 200 2.0 2.0 0.24 0.10 0.10 99 1009.1
20260507100606 66 201 2.0 2.0 0.12 0.08 0.08 99 1008.8
20260507100104 66 201 0.0 0.0 0.07 0.06 0.06 99 1009.2
20260507095601 67 201 0.0 0.0 0.07 0.06 0.06 99 1009.0
20260507095058 67 201 0.0 0.0 0.12 0.05 0.05 99 1009.0
20260507094554 68 201 0.0 0.0 0.28 0.05 0.05 98 1008.9
20260507094051 68 201 0.0 0.0 0.24 0.04 0.04 96 1009.0
20260507093549 68 201 2.0 2.0 0.00 0.00 0.00 94 1009.1
20260507093047 68 201 1.0 1.0 0.00 0.00 0.00 94 1008.9
20260507092543 68 201 1.0 1.0 0.00 0.00 0.00 93 1008.8
20260507092040 68 201 1.0 1.0 0.00 0.00 0.00 93 1009.0
20260507091537 68 201 1.0 1.0 0.00 0.00 0.00 93 1008.8
20260507091033 69 201 1.0 1.0 0.00 0.00 0.00 93 1008.7
20260507090529 69 201 1.0 1.0 0.00 0.00 0.00 93 1009.0
20260507090026 69 201 1.0 1.0 0.00 0.00 0.00 92 1009.0
20260507085523 69 201 2.0 2.0 0.00 0.00 0.00 92 1008.8
20260507085020 69 200 2.0 2.0 0.00 0.00 0.00 92 1009.3
20260507084516 69 199 2.0 2.0 0.00 0.00 0.00 92 1009.3
20260507084013 69 199 2.0 2.0 0.00 0.00 0.00 92 1009.2
20260507083509 69 197 1.0 1.0 0.00 0.00 0.00 91 1009.2
20260507083007 69 197 1.0 1.0 0.00 0.00 0.00 91 1009.4
20260507082503 69 197 1.0 1.0 0.00 0.00 0.00 90 1009.3
20260507081959 69 197 1.0 1.0 0.00 0.00 0.00 90 1009.6
20260507081455 69 196 1.0 1.0 0.00 0.00 0.00 91 1009.5
20260507080952 69 196 2.0 2.0 0.00 0.00 0.00 91 1009.7
20260507080448 69 196 2.0 2.0 0.00 0.00 0.00 90 1009.6
20260507075943 69 196 2.0 2.0 0.00 0.00 0.00 89 1009.6
20260507075440 69 191 2.0 2.0 0.00 0.00 0.00 90 1009.6
20260507074937 69 190 2.0 2.0 0.00 0.00 0.00 90 1009.8
20260507074433 69 188 2.0 1.0 0.00 0.00 0.00 90 1009.8
20260507073932 69 183 2.0 2.0 0.00 0.00 0.00 90 1009.8
20260507073428 69 181 2.0 2.0 0.00 0.00 0.00 89 1009.9
20260507072925 69 181 1.0 1.0 0.00 0.00 0.00 90 1010.0
20260507072422 69 180 2.0 2.0 0.00 0.00 0.00 89 1010.1
20260507071920 69 179 2.0 2.0 0.00 0.00 0.00 89 1010.0
20260507071416 69 178 1.0 1.0 0.00 0.00 0.00 89 1009.7
20260507070913 69 178 1.0 1.0 0.00 0.00 0.00 89 1009.6
20260507070410 69 177 1.0 1.0 0.00 0.00 0.00 89 1009.8
20260507065907 69 177 2.0 2.0 0.00 0.00 0.00 89 1009.4
20260507065404 69 176 0.0 0.0 0.00 0.00 0.00 90 1009.5
20260507064900 69 176 1.0 1.0 0.00 0.00 0.00 91 1009.2
20260507064359 69 179 2.0 2.0 0.00 0.00 0.00 90 1009.0
20260507063856 69 168 3.0 3.0 0.00 0.00 0.00 88 1008.6
20260507063353 70 170 3.0 2.0 0.00 0.00 0.00 87 1009.2
20260507062850 70 206 2.0 2.0 0.00 0.00 0.00 86 1009.8
20260507062347 70 206 2.0 2.0 0.00 0.00 0.00 85 1010.3
20260507061845 70 206 1.0 1.0 0.00 0.00 0.00 85 1010.6
20260507061342 70 206 1.0 1.0 0.00 0.00 0.00 85 1010.8
20260507060841 70 206 1.0 1.0 0.00 0.00 0.00 85 1010.5
20260507060337 70 206 1.0 1.0 0.00 0.00 0.00 85 1010.5
20260507055834 71 206 1.0 1.0 0.00 0.00 0.00 83 1010.4
20260507055329 71 206 2.0 2.0 0.00 0.00 0.00 82 1010.5
20260507054826 71 206 2.0 2.0 0.00 0.00 0.00 82 1010.6
20260507054322 71 206 2.0 2.0 0.00 0.00 0.00 80 1010.5
20260507053820 71 206 2.0 2.0 0.00 0.00 0.00 80 1010.5
20260507053317 71 213 3.0 2.0 0.00 0.00 0.00 79 1010.5
20260507052816 71 208 2.0 3.0 0.00 0.00 0.00 79 1010.7
20260507052312 71 196 2.0 2.0 0.00 0.00 0.00 80 1010.5
20260507051810 71 205 2.0 2.0 0.00 0.00 0.00 79 1010.7
20260507051307 71 210 2.0 3.0 0.00 0.00 0.00 79 1010.6
20260507050804 71 202 2.0 2.0 0.00 0.00 0.00 80 1010.5
20260507050300 71 201 2.0 2.0 0.00 0.00 0.00 80 1010.4
20260507045757 71 199 3.0 3.0 0.00 0.00 0.00 81 1010.4
20260507045253 71 201 2.0 2.0 0.00 0.00 0.00 80 1010.4
20260507044751 71 199 2.0 2.0 0.00 0.00 0.00 80 1010.5
20260507044247 71 197 4.0 3.0 0.00 0.00 0.00 81 1010.6
20260507043743 71 192 2.0 3.0 0.00 0.00 0.00 81 1010.6
20260507043240 71 195 3.0 3.0 0.00 0.00 0.00 80 1010.5
20260507042736 71 190 3.0 3.0 0.00 0.00 0.00 81 1010.8
20260507042232 71 208 4.0 4.0 0.00 0.00 0.00 82 1010.7
20260507041730 71 198 4.0 3.0 0.00 0.00 0.00 81 1010.8
20260507041226 71 208 4.0 4.0 0.00 0.00 0.00 80 1010.5
20260507040723 71 194 4.0 6.0 0.00 0.00 0.00 80 1010.4
20260507040219 71 200 4.0 3.0 0.00 0.00 0.00 79 1010.4
20260507035715 71 199 4.0 3.0 0.00 0.00 0.00 80 1010.5
20260507035211 71 197 4.0 4.0 0.00 0.00 0.00 80 1010.5
20260507034708 71 191 4.0 3.0 0.00 0.00 0.00 80 1010.5
20260507034206 71 200 4.0 4.0 0.00 0.00 0.00 79 1010.2
20260507033704 71 183 4.0 4.0 0.00 0.00 0.00 79 1010.5
20260507033201 71 190 4.0 4.0 0.00 0.00 0.00 79 1010.5
20260507032658 71 177 4.0 4.0 0.00 0.00 0.00 79 1010.7
20260507032153 71 192 3.0 3.0 0.00 0.00 0.00 81 1010.7
20260507031651 71 193 4.0 3.0 0.00 0.00 0.00 80 1010.6
20260507031147 71 195 4.0 3.0 0.00 0.00 0.00 81 1010.5
20260507030644 71 195 4.0 4.0 0.00 0.00 0.00 80 1010.5
20260507030142 71 193 4.0 3.0 0.00 0.00 0.00 80 1010.6
20260507025639 71 194 3.0 3.0 0.00 0.00 0.00 80 1010.7
20260507025136 71 193 3.0 2.0 0.00 0.00 0.00 81 1010.6
20260507024634 71 190 3.0 3.0 0.00 0.00 0.00 81 1010.8
20260507024131 71 190 2.0 2.0 0.00 0.00 0.00 80 1010.7
20260507023626 72 169 3.0 3.0 0.00 0.00 0.00 80 1010.7
20260507023124 72 183 3.0 3.0 0.00 0.00 0.00 79 1010.9
20260507022621 72 196 3.0 3.0 0.00 0.00 0.00 79 1010.8
20260507022116 72 188 3.0 3.0 0.00 0.00 0.00 80 1011.1
20260507021612 73 191 3.0 3.0 0.00 0.00 0.00 78 1010.7
20260507021108 73 201 3.0 3.0 0.00 0.00 0.00 77 1010.8
20260507020607 73 201 2.0 2.0 0.00 0.00 0.00 75 1010.9
20260507015601 74 201 1.0 1.0 0.00 0.00 0.00 73 1011.0
20260507015058 74 201 1.0 2.0 0.00 0.00 0.00 74 1010.9
20260507014555 74 201 2.0 2.0 0.00 0.00 0.00 75 1010.9
20260507014050 74 201 2.0 1.0 0.00 0.00 0.00 75 1010.8
20260507013547 74 200 1.0 1.0 0.00 0.00 0.00 77 1010.8
20260507013044 74 201 2.0 2.0 0.00 0.00 0.00 77 1010.8
20260507012542 74 200 1.0 1.0 0.00 0.00 0.00 77 1010.8
20260507012038 74 201 2.0 2.0 0.00 0.00 0.00 77 1011.0
20260507011536 74 192 4.0 3.0 0.00 0.00 0.00 78 1010.8
20260507011031 74 200 3.0 3.0 0.00 0.00 0.00 79 1010.9
20260507010526 74 203 3.0 3.0 0.00 0.00 0.00 77 1011.0
20260507010023 74 209 3.0 3.0 0.00 0.00 0.00 78 1011.0
20260507005520 74 195 3.0 4.0 0.00 0.00 0.00 78 1011.0
20260507005017 74 201 4.0 4.0 0.00 0.00 0.00 79 1011.0
20260507004514 74 203 5.0 6.0 0.00 0.00 0.00 79 1010.7
20260507004011 74 202 6.0 6.0 0.00 0.00 0.00 79 1010.7
20260507003506 74 197 4.0 4.0 0.00 0.00 0.00 80 1010.8
20260507003001 75 196 4.0 4.0 0.00 0.00 0.00 80 1010.6
20260507002458 75 204 5.0 6.0 0.00 0.00 0.00 79 1010.6
20260507001955 75 204 5.0 6.0 0.00 0.00 0.00 80 1010.4
20260507001451 75 210 6.0 6.0 0.00 0.00 0.00 80 1010.3
20260507000949 75 165 4.0 4.0 0.00 0.00 0.00 80 1010.2
20260507000444 75 196 5.0 6.0 0.00 0.00 0.00 80 1010.2
20260506235940 74 189 4.0 4.0 0.00 0.00 0.00 80 1010.4
20260506235438 74 183 4.0 4.0 0.00 0.00 0.00 82 1010.3
20260506234933 75 186 4.0 4.0 0.00 0.00 0.00 81 1010.2
20260506234431 75 179 4.0 3.0 0.00 0.00 0.00 80 1010.3
20260506233929 75 188 4.0 4.0 0.00 0.00 0.00 80 1009.9
20260506233425 75 183 4.0 4.0 0.00 0.00 0.00 79 1010.0
20260506232921 75 204 4.0 4.0 0.00 0.00 0.00 80 1010.0
20260506232418 75 198 5.0 4.0 0.00 0.00 0.00 79 1009.9
20260506231914 76 201 4.0 4.0 0.00 0.00 0.00 78 1010.2
20260506231411 76 182 4.0 4.0 0.00 0.00 0.00 77 1010.0
20260506230909 75 198 5.0 6.0 0.00 0.00 0.00 79 1010.0
20260506230405 75 219 4.0 4.0 0.00 0.00 0.00 78 1009.9
20260506225901 76 189 4.0 4.0 0.00 0.00 0.00 77 1009.8
20260506225359 76 195 4.0 4.0 0.00 0.00 0.00 77 1009.6
20260506224855 76 165 4.0 4.0 0.00 0.00 0.00 76 1009.8
20260506224353 76 182 4.0 3.0 0.00 0.00 0.00 76 1009.9
20260506223849 76 192 4.0 4.0 0.00 0.00 0.00 76 1009.7
20260506223344 76 198 4.0 6.0 0.00 0.00 0.00 75 1009.7
20260506222842 76 183 4.0 4.0 0.00 0.00 0.00 76 1009.9
20260506222337 76 190 4.0 4.0 0.00 0.00 0.00 74 1009.8
20260506221835 76 183 4.0 4.0 0.00 0.00 0.00 74 1009.5
20260506221332 77 197 4.0 4.0 0.00 0.00 0.00 73 1009.8
20260506220830 77 195 5.0 6.0 0.00 0.00 0.00 71 1009.6
20260506220325 77 193 3.0 3.0 0.00 0.00 0.00 72 1010.0
20260506215822 77 204 4.0 4.0 0.00 0.00 0.00 70 1009.7
20260506215318 77 180 3.0 3.0 0.00 0.00 0.00 71 1009.6
20260506214814 77 201 4.0 4.0 0.00 0.00 0.00 71 1010.0
20260506214311 77 198 4.0 4.0 0.00 0.00 0.00 70 1009.8
20260506213810 77 195 4.0 4.0 0.00 0.00 0.00 70 1009.5